Location: Joplin, MO
(37.0842°N, 94.5133°W)
Time: 08:55:07
(UTC+02:00)

Transit 2A - Pass Details

Date: 07 April 2023
Orbit: 591 x 964 km, 66.7° (Epoch: 02 June)

Event Time Altitude Azimuth Distance (km) Brightness Sun altitude
Exits shadow 09:30:54 17° 45° (NE) 2,059 8.7 -43.1°
Drops below altitude 10° 09:32:19 10° 39° (NE) 2,553 9.3 -43.0°
Sets 09:35:01 0° 34° (NE) 3,545 10.2 -42.8°
